Starlink 2015

operational
NORAD ID: 47638 Int'l Des: 2021-012 Owner: SPXS Country: US Constellation: starlink
LEOCIRCULARSTARLINK_TYPE

关于 Starlink 2015

正在加载描述...

实时位置

正在加载3D地球...

即将过境

高度历史

Altitude vs Time

uPlot chart will show altitude changes over time

两行轨道根数

1 47638U 21012U 25302.45694944 .00005514 00000-0 38875-3 0 9990
2 47638 53.0523 205.7460 0001673 97.6223 262.4956 15.06404059261511
Epoch: Oct 29, 2025 • Age: 8 hours

当前状态

高度 550.8 km
速度 7.59 km/s
星下点 44.35°N, 75.13°W
发射日期 Feb 16, 2021
运行时间 4.6 years
类型 internet

技术详情

分类 Payload
质量 260.00 kg
干质量 248.00 kg
总质量 260.00 kg
长度 0.20 m
直径 2.80 m
跨度 9.00 m
形状 Box + pan
制造商 SPXS
平台类型 Starlink
阶段状态 In Orbit
所有者/国家 SPXS/US

大型星座

Loading constellations...